Weather History for Oscoda, MI

Change the Weather History Date:

Monday, February 17, 2014

  Actual Average Record
Temperature  
Mean Temperature 2 °F -  
Max Temperature 21 °F 29 °F 48 °F (2011)
Min Temperature -16 °F 14 °F -16 °F (2014)
Degree Days  
Heating Degree Days 62    
Moisture  
Dew Point -2 °F    
Average Humidity 73    
Maximum Humidity 93    
Minimum Humidity 47    
Precipitation  
Precipitation 0.06 in - - ()
Sea Level Pressure  
Sea Level Pressure 30.16 in    
Wind  
Wind Speed 4 mph (SE)    
Max Wind Speed 18 mph    
Max Gust Speed 28 mph    
Visibility 8 miles    
Events Snow    
Averages and records for this station are not official NWS values.
T = Trace of Precipitation, MM = Missing Value Source: NWS Daily Summary

Daily Weather History Graph

Daily Weather History Graph

Search for Another Location

Airport:

Trip Planner

Search our weather history database for the weather conditions in past years. The results will help you decide how hot, cold, wet, or windy it might be!

Date:

Astronomy

Feb. 17, 2014 Rise Set
Actual Time 7:30 AM EST 6:05 PM EST
Civil Twilight 7:00 AM EST 6:35 PM EST
Nautical Twilight 6:26 AM EST 7:09 PM EST
Astronomical Twilight 5:53 AM EST 7:42 PM EST
Moon 9:07 PM EST (2/17) 8:22 AM EST (2/17)
Length of Visible Light 11h 34m
Length of Day
10h 34m
Waning Gibbous, 93% of the Moon is Illuminated
Feb 17
Waning Gibbous
Feb 22
Last Quarter
Mar 1
New
Mar 8
First Quarter
Mar 16
Full

Hourly Weather History & Observations

Time (EST) Temp. Windchill Dew Point Humidity Pressure Visibility Wind Dir Wind Speed Gust Speed Precip Events Conditions
12:14 AM -13.2 °F -25.3 °F -18.8 °F 76% 30.36 in 10.0 mi WSW 4.6 mph - N/A   Clear
12:34 AM -11.9 °F -23.8 °F -17.3 °F 77% 30.36 in 10.0 mi WSW 4.6 mph - N/A   Clear
12:54 AM -12.6 °F - -17.5 °F 79% 30.36 in 10.0 mi Calm Calm - N/A   Clear
1:14 AM -12.1 °F - -18.0 °F 75% 30.36 in 10.0 mi Calm Calm - N/A   Clear
1:34 AM -13.4 °F - -18.8 °F 77% 30.36 in 10.0 mi Calm Calm - N/A   Clear
1:54 AM -13.9 °F - -19.5 °F 76% 30.37 in 10.0 mi Calm Calm - N/A   Clear
2:14 AM -13.5 °F - -18.4 °F 79% 30.36 in 10.0 mi Calm Calm - N/A   Clear
2:34 AM -16.1 °F - -21.8 °F 75% 30.36 in 10.0 mi Calm Calm - N/A   Clear
2:54 AM -15.3 °F - -20.7 °F 77% 30.37 in 10.0 mi Calm Calm - N/A   Clear
3:14 AM -14.4 °F - -20.0 °F 76% 30.37 in 10.0 mi Calm Calm - N/A   Clear
3:34 AM -15.2 °F - -20.7 °F 76% 30.36 in 10.0 mi Calm Calm - N/A   Clear
3:54 AM -15.5 °F -25.6 °F -21.6 °F 74% 30.37 in 10.0 mi NW 3.5 mph - N/A   Clear
4:14 AM -15.2 °F - -20.6 °F 77% 30.37 in 10.0 mi Calm Calm - N/A   Clear
4:34 AM -15.7 °F - -22.0 °F 73% 30.38 in 10.0 mi Calm Calm - N/A   Clear
4:54 AM -14.4 °F - -20.4 °F 75% 30.38 in 10.0 mi Calm Calm - N/A   Clear
5:14 AM -12.5 °F - -18.0 °F 76% 30.38 in 10.0 mi Calm Calm - N/A   Clear
5:34 AM -13.5 °F - -19.3 °F 75% 30.37 in 10.0 mi Calm Calm - N/A   Clear
5:54 AM -12.8 °F - -18.4 °F 76% 30.38 in 10.0 mi Calm Calm - N/A   Clear
6:14 AM -13.2 °F - -19.1 °F 75% 30.38 in 10.0 mi Calm Calm - N/A   Clear
6:34 AM -12.3 °F - -18.2 °F 75% 30.37 in 10.0 mi Calm Calm - N/A   Clear
6:54 AM -15.3 °F - -21.5 °F 74% 30.39 in 10.0 mi Calm Calm - N/A   Clear
7:14 AM -15.9 °F - -22.2 °F 73% 30.39 in 10.0 mi Calm Calm - N/A   Clear
7:34 AM -14.6 °F - -20.4 °F 75% 30.38 in 10.0 mi Calm Calm - N/A   Clear
7:54 AM -15.2 °F - -21.1 °F 75% 30.38 in 10.0 mi Calm Calm - N/A   Clear
8:14 AM -14.1 °F - -19.5 °F 77% 30.38 in 7.0 mi Calm Calm - N/A   Clear
8:34 AM -12.1 °F - -17.1 °F 78% 30.37 in 5.0 mi Calm Calm - N/A   Haze
8:54 AM -11.0 °F - -16.4 °F 77% 30.37 in 10.0 mi Calm Calm - N/A   Clear
9:14 AM -6.0 °F - -10.8 °F 79% 30.36 in 10.0 mi Calm Calm - N/A   Clear
9:34 AM -3.6 °F - -9.0 °F 78% 30.35 in 10.0 mi Calm Calm - N/A   Clear
9:54 AM -1.5 °F - -6.0 °F 81% 30.33 in 10.0 mi Calm Calm - N/A   Clear
10:14 AM 1.2 °F - -3.3 °F 81% 30.31 in 10.0 mi Calm Calm - N/A   Clear
10:34 AM 14.2 °F 1.4 °F 7.7 °F 75% 30.31 in 10.0 mi SE 10.4 mph - N/A   Clear
10:54 AM 15.3 °F 2.8 °F 5.5 °F 65% 30.30 in 10.0 mi SE 10.4 mph - N/A   Clear
11:14 AM 15.8 °F 5.1 °F 5.9 °F 65% 30.28 in 10.0 mi SE 8.1 mph - N/A   Clear
11:34 AM 15.6 °F 2.5 °F 3.6 °F 59% 30.28 in 10.0 mi SE 11.5 mph 17.3 mph N/A   Clear
11:54 AM 15.8 °F 4.2 °F 3.7 °F 59% 30.26 in 10.0 mi SE 9.2 mph 16.1 mph N/A   Clear
12:13 PM 15.8 °F 3.4 °F 3.6 °F 59% 30.25 in 10.0 mi SE 10.4 mph 16.1 mph N/A   Clear
12:34 PM 16.5 °F 2.4 °F 3.2 °F 56% 30.23 in 10.0 mi SSE 13.8 mph 20.7 mph N/A   Clear
12:54 PM 17.1 °F 2.0 °F 1.9 °F 52% 30.21 in 10.0 mi SSE 16.1 mph 21.9 mph N/A   Clear
1:13 PM 16.9 °F 2.3 °F 2.3 °F 53% 30.19 in 10.0 mi SE 15.0 mph 21.9 mph N/A   Clear
1:34 PM 16.7 °F 5.3 °F 3.0 °F 55% 30.19 in 10.0 mi SE 9.2 mph 18.4 mph N/A   Clear
1:54 PM 17.2 °F 5.2 °F 3.4 °F 55% 30.17 in 10.0 mi SSE 10.4 mph 17.3 mph N/A   Clear
2:14 PM 17.1 °F 5.0 °F 1.4 °F 50% 30.17 in 10.0 mi SE 10.4 mph 18.4 mph N/A   Scattered Clouds
2:34 PM 17.4 °F 5.4 °F 2.3 °F 52% 30.16 in 10.0 mi SSE 10.4 mph 17.3 mph N/A   Scattered Clouds
2:54 PM 17.6 °F 5.0 °F 0.3 °F 47% 30.14 in 10.0 mi SSE 11.5 mph 19.6 mph N/A   Mostly Cloudy
3:14 PM 17.6 °F 6.4 °F 2.1 °F 51% 30.12 in 10.0 mi SE 9.2 mph 12.7 mph N/A   Overcast
3:34 PM 17.4 °F 6.2 °F 1.9 °F 51% 30.10 in 10.0 mi SE 9.2 mph - N/A   Overcast
3:54 PM 17.6 °F 5.0 °F 3.0 °F 53% 30.09 in 10.0 mi SE 11.5 mph 17.3 mph N/A   Overcast
4:14 PM 17.6 °F 5.0 °F 4.6 °F 57% 30.07 in 10.0 mi SE 11.5 mph 16.1 mph N/A   Overcast
4:34 PM 17.6 °F 5.7 °F 4.3 °F 56% 30.05 in 10.0 mi ESE 10.4 mph 17.3 mph N/A   Overcast
4:54 PM 17.6 °F 5.0 °F 7.0 °F 63% 30.04 in 10.0 mi SE 11.5 mph 17.3 mph N/A   Overcast
5:14 PM 17.6 °F 5.0 °F 7.2 °F 64% 30.02 in 10.0 mi SE 11.5 mph 16.1 mph N/A   Overcast
5:34 PM 17.6 °F 5.0 °F 9.7 °F 71% 30.00 in 10.0 mi ESE 11.5 mph 17.3 mph N/A   Overcast
5:54 PM 18.0 °F 4.2 °F 9.5 °F 70% 29.98 in 10.0 mi ESE 13.8 mph 18.4 mph N/A   Overcast
6:14 PM 18.3 °F 5.2 °F 9.9 °F 70% 29.96 in 10.0 mi ESE 12.7 mph 19.6 mph N/A   Overcast
6:34 PM 18.5 °F 3.8 °F 9.5 °F 68% 29.94 in 10.0 mi ESE 16.1 mph 20.7 mph N/A   Overcast
6:54 PM 18.7 °F 4.6 °F 10.2 °F 70% 29.91 in 10.0 mi ESE 15.0 mph 26.5 mph N/A   Overcast
7:14 PM 19.0 °F 4.5 °F 10.4 °F 69% 29.89 in 5.0 mi ESE 16.1 mph 24.2 mph N/A Snow Light Snow
7:34 PM 18.0 °F 2.2 °F 13.6 °F 83% 29.87 in 1.0 mi ESE 18.4 mph 27.6 mph N/A Snow Snow
7:54 PM 18.1 °F 5.0 °F 15.3 °F 88% 29.84 in 0.8 mi East 12.7 mph 27.6 mph N/A Snow Snow
8:14 PM 18.9 °F 5.9 °F 15.8 °F 88% 29.82 in 0.8 mi East 12.7 mph 23.0 mph N/A Snow Snow
8:34 PM 19.2 °F 9.3 °F 16.7 °F 90% 29.85 in 0.5 mi SE 8.1 mph - N/A Snow Snow
8:54 PM 19.4 °F 9.5 °F 17.4 °F 92% 29.83 in 0.5 mi ESE 8.1 mph - N/A Snow Heavy Snow
9:14 PM 20.1 °F 8.8 °F 18.1 °F 92% 29.82 in 0.5 mi ESE 10.4 mph - N/A Snow Snow
9:34 PM 20.3 °F - 18.1 °F 91% 29.79 in 0.5 mi North - - 0.02 in Snow Snow
9:54 PM 20.3 °F - 18.3 °F 92% 29.78 in 0.5 mi North - - 0.03 in Snow Snow
10:14 PM 20.7 °F - 18.5 °F 91% 29.76 in 0.5 mi North - - 0.01 in Snow Heavy Snow
10:34 PM 20.7 °F - 18.5 °F 91% 29.74 in 0.5 mi North - - 0.01 in Snow Snow
10:54 PM 20.7 °F - 18.9 °F 93% 29.73 in 0.5 mi North - - 0.02 in Snow Heavy Snow
11:14 PM 20.8 °F - 19.0 °F 93% 29.72 in 0.5 mi North - - N/A Snow Heavy Snow
11:34 PM 21.0 °F 12.4 °F 19.4 °F 93% 29.70 in 0.5 mi East 6.9 mph - 0.01 in Snow Heavy Snow
11:54 PM 21.2 °F - 19.4 °F 93% 29.70 in 1.0 mi North - - 0.01 in Snow Snow